Location: Boulin
(43.2500°N, 0.1333°E)
Time: 21:37:06
(UTC+00:00)

Cosmos 1933 - Visible Passes

Search period start: 16 March 2026 00:00
Search period end: 26 March 2026 00:00
Orbit: 509 x 515 km, 82.5° (Epoch: 16 March)

Date Brightness Start Highest point End Pass type
(mag) Time Alt. Az. Time Alt. Az. Time Alt. Az.
16 Mar 5.0 04:33:00 10° SSE 04:36:26 33° E 04:39:54 10° NNE visible
17 Mar 5.4 04:16:59 10° SSE 04:20:13 26° E 04:23:27 10° NNE visible
18 Mar 5.7 04:01:04 10° SE 04:03:59 21° E 04:06:56 10° NE visible
18 Mar 4.3 05:36:16 10° SW 05:39:29 25° WNW 05:42:42 10° NNW visible
19 Mar 6.0 03:45:14 10° SE 03:47:46 17° E 03:50:19 10° NE visible
19 Mar 4.0 05:19:42 10° SW 05:23:08 31° WNW 05:26:36 10° NNW visible
20 Mar 6.2 03:29:34 10° ESE 03:31:34 14° E 03:33:33 10° NE visible
20 Mar 3.6 05:03:12 10° SSW 05:06:48 39° WNW 05:10:25 10° N visible
21 Mar 6.4 03:14:17 10° E 03:15:21 11° E 03:16:23 10° ENE visible
21 Mar 3.3 04:47:11 13° SSW 04:50:28 50° W 04:54:12 10° N visible
22 Mar 3.1 04:31:44 21° SSW 04:34:08 65° W 04:37:56 10° N visible
23 Mar 3.0 04:16:10 33° SSW 04:17:48 84° W 04:21:38 10° N visible
24 Mar 3.2 04:00:29 47° S 04:01:28 76° E 04:05:18 10° NNE visible
25 Mar 3.6 03:44:44 54° SE 03:45:09 58° E 03:48:55 10° NNE visible
25 Mar 5.3 05:20:37 10° WNW 05:21:11 10° WNW 05:21:44 10° WNW visible
